ROMMA est une association bénévole à but non lucratif. Votre soutien est indispensable : ADHERER à ROMMA ou FAIRE un DON

Recoubeau - (26, Drôme)

Diois (510 m)   Longitude: 5° 24' E   Latitude: 44° 39' N Station partenaire n°64
 

Détail journalier du     <<     >>

Température Precipitation Humidité Pression Vent Dir Rafale Dir. rafale
Heure (°C) (mm) (%) (hPa) (km/h) (km/h)
01:00 11.6055101315ESE42SE
02:00 11.6055101317SE52ESE
03:00 11.9055101318SE58SSE
04:00 11.8054101320SE48ESE
05:00 11.8050101219SE45SE
06:00 12.1046101219SE42SE
07:00 12.2046101119SE53SE
08:00 13.3041101121SE48ESE
09:00 14.8040101120SE53SE
10:00 16.2041101219ESE55ESE
11:00 17.8040101122SE60SE
12:00 18.7042101225SSE64SE
13:00 16.8044101217ESE44S
14:00 17.2045101216ESE40ESE
15:00 17.6046101117SSE56S
16:00 17.8046101118SSE45SE
17:00 16.6051101122SSE61SE
18:00 16.0054101119SE48ESE
19:00 15.6055101115SE40ESE
20:00 13.20.471101111SSE31S
21:00 11.42.48410126ESE24S
22:00 10.41.891101302SSO
23:00 10.2093101406N
minuit 9.8194101306NNO

Graphique du 25-04-2019

 

Serveur OMMA